CSN3087 ZGSZ-RCTP

Flight info

Callsign CSN3087
Flight time 1h 13m
Altitude 31000
Route GUBLO R200 BEBEM/N0504F310 R200 EXTRA M750 TONGA TONGA1B
Aircraft A359/H-SDE2E3GHIJ3J4J5LM1ORWXY/LB1D1

Departure

Time 2026-05-05 07:28
Airport Shenzhen Bao'an International Airport (ZGSZ)

Arrival

Time 2026-05-05 08:41
Airport Taiwan Taoyuan International Airport (RCTP)
Time Latitude Longitude Altitude Speed Heading
2026-05-05 07:14 22.62813 113.82090 21 ft 0 kts 243°
2026-05-05 07:19 22.62815 113.82095 21 ft 2 kts 243°
2026-05-05 07:19 22.62825 113.82114 25 ft 3 kts 240°
2026-05-05 07:19 22.62832 113.82129 23 ft 2 kts 241°
2026-05-05 07:19 22.62842 113.82144 24 ft 3 kts 207°
2026-05-05 07:20 22.62858 113.82147 24 ft 3 kts 155°
2026-05-05 07:20 22.62874 113.82137 22 ft 2 kts 152°
2026-05-05 07:20 22.62877 113.82135 23 ft 4 kts 153°
2026-05-05 07:25 22.62868 113.82141 26 ft 9 kts 152°
2026-05-05 07:25 22.62813 113.82173 23 ft 0 kts 152°
2026-05-05 07:25 22.62805 113.82178 25 ft 4 kts 152°
2026-05-05 07:26 22.62744 113.82159 25 ft 12 kts 227°
2026-05-05 07:26 22.62697 113.82066 23 ft 16 kts 243°
2026-05-05 07:26 22.62642 113.81950 24 ft 20 kts 243°
2026-05-05 07:26 22.62594 113.81823 24 ft 13 kts 276°
2026-05-05 07:27 22.62649 113.81763 23 ft 10 kts 334°
2026-05-05 07:27 22.62724 113.81722 23 ft 16 kts 334°
2026-05-05 07:27 22.63025 113.81557 23 ft 91 kts 333°
2026-05-05 07:27 22.63833 113.81109 25 ft 166 kts 333°
2026-05-05 07:28 22.64912 113.80508 689 ft 180 kts 333°
2026-05-05 07:28 22.66045 113.79875 1474 ft 187 kts 334°
2026-05-05 07:28 22.67288 113.79331 1882 ft 200 kts 351°
2026-05-05 07:28 22.68713 113.79500 2175 ft 217 kts 21°
2026-05-05 07:29 22.69898 113.80586 2455 ft 237 kts 59°
2026-05-05 07:29 22.70207 113.82379 2745 ft 260 kts 102°
2026-05-05 07:29 22.69301 113.84111 3243 ft 272 kts 134°
2026-05-05 07:29 22.68046 113.85692 3840 ft 283 kts 128°
2026-05-05 07:30 22.67060 113.87507 4713 ft 279 kts 122°
2026-05-05 07:30 22.63942 113.89615 6306 ft 271 kts 165°
2026-05-05 07:30 22.62281 113.90628 6958 ft 281 kts 140°
2026-05-05 07:31 22.61241 113.92441 7639 ft 292 kts 109°
2026-05-05 07:31 22.61140 113.94649 8345 ft 300 kts 81°
2026-05-05 07:31 22.61653 113.96858 9081 ft 305 kts 74°
2026-05-05 07:31 22.62262 113.99071 9825 ft 309 kts 74°
2026-05-05 07:32 22.62879 114.01333 10309 ft 320 kts 74°
2026-05-05 07:32 22.63510 114.03670 10567 ft 336 kts 74°
2026-05-05 07:32 22.64174 114.06154 10895 ft 350 kts 74°
2026-05-05 07:32 22.64858 114.08724 11397 ft 359 kts 74°
2026-05-05 07:33 22.65556 114.11335 12065 ft 363 kts 75°
2026-05-05 07:33 22.66253 114.13987 12659 ft 368 kts 74°
2026-05-05 07:33 22.66958 114.16668 13193 ft 372 kts 74°
2026-05-05 07:33 22.67671 114.19379 13718 ft 376 kts 74°
2026-05-05 07:34 22.68391 114.22115 14173 ft 380 kts 74°
2026-05-05 07:34 22.69119 114.24884 14617 ft 384 kts 74°
2026-05-05 07:34 22.69843 114.27641 15077 ft 388 kts 74°
2026-05-05 07:34 22.70584 114.30466 15536 ft 392 kts 74°
2026-05-05 07:35 22.71331 114.33315 16007 ft 395 kts 74°
2026-05-05 07:35 22.72085 114.36190 16450 ft 399 kts 74°
2026-05-05 07:35 22.72846 114.39098 16927 ft 403 kts 74°
2026-05-05 07:35 22.73579 114.42037 17350 ft 407 kts 76°
2026-05-05 07:36 22.74267 114.45035 17760 ft 412 kts 76°
2026-05-05 07:36 22.74958 114.48055 18201 ft 415 kts 76°
2026-05-05 07:36 22.75651 114.51063 18593 ft 418 kts 76°
2026-05-05 07:36 22.76229 114.54159 18986 ft 421 kts 82°
2026-05-05 07:37 22.76587 114.57310 19366 ft 423 kts 84°
2026-05-05 07:37 22.76906 114.60496 19729 ft 427 kts 84°
2026-05-05 07:37 22.77226 114.63702 20109 ft 430 kts 84°
2026-05-05 07:37 22.77550 114.66928 20497 ft 432 kts 84°
2026-05-05 07:38 22.77877 114.70174 20865 ft 435 kts 84°
2026-05-05 07:38 22.78203 114.73399 21235 ft 438 kts 83°
2026-05-05 07:38 22.78535 114.76687 21601 ft 441 kts 83°
2026-05-05 07:38 22.78879 114.79999 21995 ft 444 kts 83°
2026-05-05 07:39 22.79236 114.83333 22412 ft 447 kts 83°
2026-05-05 07:39 22.79597 114.86692 22796 ft 451 kts 82°
2026-05-05 07:39 22.79960 114.90072 23182 ft 453 kts 82°
2026-05-05 07:39 22.80324 114.93472 23549 ft 455 kts 82°
2026-05-05 07:40 22.80688 114.96888 23833 ft 458 kts 82°
2026-05-05 07:40 22.81054 115.00336 24192 ft 463 kts 83°
2026-05-05 07:40 22.81414 115.03762 24501 ft 465 kts 83°
2026-05-05 07:40 22.81780 115.07252 24815 ft 467 kts 82°
2026-05-05 07:41 22.82149 115.10762 25130 ft 470 kts 82°
2026-05-05 07:41 22.82518 115.14281 25517 ft 472 kts 83°
2026-05-05 07:41 22.82887 115.17825 25839 ft 475 kts 83°
2026-05-05 07:41 22.83257 115.21398 26147 ft 478 kts 82°
2026-05-05 07:42 22.83631 115.24995 26473 ft 481 kts 82°
2026-05-05 07:42 22.84005 115.28600 26804 ft 483 kts 82°
2026-05-05 07:42 22.84381 115.32232 27157 ft 486 kts 82°
2026-05-05 07:42 22.84754 115.35843 27542 ft 490 kts 83°
2026-05-05 07:43 22.85132 115.39524 27882 ft 493 kts 83°
2026-05-05 07:43 22.85513 115.43227 28273 ft 496 kts 83°
2026-05-05 07:43 22.85896 115.46964 28653 ft 501 kts 83°
2026-05-05 07:43 22.86281 115.50724 29020 ft 503 kts 83°
2026-05-05 07:44 22.86668 115.54508 29379 ft 506 kts 83°
2026-05-05 07:44 22.87055 115.58312 29753 ft 509 kts 83°
2026-05-05 07:44 22.87444 115.62140 30109 ft 512 kts 83°
2026-05-05 07:44 22.87834 115.65990 30411 ft 516 kts 83°
2026-05-05 07:45 22.88221 115.69817 30729 ft 519 kts 83°
2026-05-05 07:45 22.88614 115.73711 30960 ft 518 kts 83°
2026-05-05 07:45 22.88997 115.77536 30983 ft 502 kts 83°
2026-05-05 07:45 22.89367 115.81238 30999 ft 486 kts 83°
2026-05-05 07:46 22.89723 115.84827 30989 ft 473 kts 83°
2026-05-05 07:46 22.90073 115.88356 30991 ft 470 kts 83°
2026-05-05 07:46 22.90799 115.95350 30985 ft 469 kts 82°
2026-05-05 07:47 22.91543 116.02378 30995 ft 469 kts 83°
2026-05-05 07:47 22.92280 116.09404 30994 ft 469 kts 83°
2026-05-05 07:48 22.93002 116.16431 30996 ft 469 kts 83°
2026-05-05 07:48 22.93721 116.23456 30996 ft 469 kts 83°
2026-05-05 07:49 22.94433 116.30433 30998 ft 468 kts 83°
2026-05-05 07:49 22.95143 116.37455 30999 ft 468 kts 83°
2026-05-05 07:50 22.95553 116.44496 30997 ft 468 kts 88°
2026-05-05 07:50 22.95788 116.51553 30998 ft 468 kts 88°
2026-05-05 07:51 22.96053 116.58560 30997 ft 468 kts 88°
2026-05-05 07:51 22.96360 116.65607 31001 ft 467 kts 87°
2026-05-05 07:52 22.96679 116.72644 30998 ft 467 kts 87°
2026-05-05 07:52 22.96994 116.79641 31010 ft 467 kts 87°
2026-05-05 07:53 22.97306 116.86680 31007 ft 467 kts 88°
2026-05-05 07:53 22.97613 116.93717 31004 ft 467 kts 88°
2026-05-05 07:54 22.97916 117.00753 31004 ft 466 kts 88°
2026-05-05 07:54 22.98217 117.07782 31004 ft 466 kts 88°
2026-05-05 07:55 22.98512 117.14763 31002 ft 466 kts 88°
2026-05-05 07:55 22.98807 117.21789 31000 ft 466 kts 88°
2026-05-05 07:56 22.99097 117.28791 30993 ft 464 kts 88°
2026-05-05 07:56 22.99385 117.35795 31001 ft 465 kts 88°
2026-05-05 07:57 22.99674 117.42757 31001 ft 465 kts 88°
2026-05-05 07:57 22.99563 117.46256 31002 ft 463 kts 100°
2026-05-05 07:57 22.98813 117.49626 31000 ft 457 kts 114°
2026-05-05 07:58 22.97397 117.52661 31001 ft 447 kts 130°
2026-05-05 07:58 22.95491 117.55290 31009 ft 441 kts 137°
2026-05-05 07:58 22.91345 117.60180 30992 ft 439 kts 140°
2026-05-05 07:59 22.87124 117.64910 30993 ft 439 kts 140°
2026-05-05 07:59 22.82892 117.69694 30997 ft 440 kts 140°
2026-05-05 08:00 22.78683 117.74508 30993 ft 440 kts 140°
2026-05-05 08:00 22.74485 117.79327 30993 ft 440 kts 140°
2026-05-05 08:01 22.70283 117.84147 30988 ft 440 kts 140°
2026-05-05 08:01 22.66111 117.88926 30987 ft 440 kts 140°
2026-05-05 08:02 22.61905 117.93734 30993 ft 439 kts 140°
2026-05-05 08:02 22.57758 117.98605 30979 ft 442 kts 137°
2026-05-05 08:03 22.53818 118.03719 30979 ft 443 kts 135°
2026-05-05 08:03 22.49924 118.08831 30977 ft 443 kts 136°
2026-05-05 08:04 22.46001 118.13959 30975 ft 445 kts 133°
2026-05-05 08:04 22.44377 118.16828 30979 ft 453 kts 120°
2026-05-05 08:04 22.43365 118.20074 30979 ft 460 kts 104°
2026-05-05 08:05 22.43110 118.23526 30979 ft 464 kts 88°
2026-05-05 08:05 22.43627 118.26957 30979 ft 463 kts 72°
2026-05-05 08:05 22.44865 118.30152 30978 ft 460 kts 58°
2026-05-05 08:05 22.46429 118.33118 30978 ft 460 kts 56°
2026-05-05 08:06 22.49803 118.38984 30971 ft 460 kts 54°
2026-05-05 08:06 22.53214 118.44850 30978 ft 461 kts 55°
2026-05-05 08:07 22.56578 118.50745 30978 ft 461 kts 55°
2026-05-05 08:07 22.59933 118.56655 30976 ft 461 kts 55°
2026-05-05 08:08 22.63303 118.62563 30983 ft 461 kts 55°
2026-05-05 08:08 22.66643 118.68431 30978 ft 461 kts 55°
2026-05-05 08:09 22.70004 118.74343 30978 ft 461 kts 55°
2026-05-05 08:09 22.73364 118.80262 30977 ft 461 kts 55°
2026-05-05 08:10 22.76725 118.86190 30976 ft 461 kts 55°
2026-05-05 08:10 22.80060 118.92078 30991 ft 461 kts 55°
2026-05-05 08:11 22.83416 118.98009 30975 ft 462 kts 55°
2026-05-05 08:11 22.86774 119.03952 30978 ft 462 kts 56°
2026-05-05 08:12 22.90132 119.09901 30979 ft 463 kts 56°
2026-05-05 08:12 22.93489 119.15856 30979 ft 462 kts 56°
2026-05-05 08:13 22.96818 119.21769 30982 ft 462 kts 56°
2026-05-05 08:13 23.00170 119.27726 30993 ft 462 kts 56°
2026-05-05 08:14 23.03524 119.33696 30978 ft 464 kts 56°
2026-05-05 08:14 23.06892 119.39696 30976 ft 469 kts 56°
2026-05-05 08:15 23.10269 119.45720 30977 ft 470 kts 56°
2026-05-05 08:15 23.13666 119.51790 30977 ft 470 kts 56°
2026-05-05 08:16 23.17216 119.57742 30974 ft 466 kts 46°
2026-05-05 08:16 23.19546 119.60121 30975 ft 455 kts 30°
2026-05-05 08:16 23.22200 119.61952 30996 ft 451 kts 24°
2026-05-05 08:17 23.27639 119.65351 30978 ft 452 kts 23°
2026-05-05 08:17 23.33053 119.68739 30984 ft 452 kts 23°
2026-05-05 08:18 23.38496 119.72164 30986 ft 452 kts 23°
2026-05-05 08:18 23.43937 119.75595 30989 ft 452 kts 23°
2026-05-05 08:19 23.49373 119.79041 30987 ft 453 kts 24°
2026-05-05 08:19 23.54683 119.82707 30985 ft 455 kts 26°
2026-05-05 08:20 23.60019 119.86415 30990 ft 455 kts 26°
2026-05-05 08:20 23.65364 119.90108 30991 ft 455 kts 26°
2026-05-05 08:21 23.70712 119.93801 31003 ft 455 kts 25°
2026-05-05 08:21 23.76073 119.97503 30994 ft 456 kts 25°
2026-05-05 08:22 23.81406 120.01191 30985 ft 457 kts 26°
2026-05-05 08:22 23.86783 120.04911 30986 ft 457 kts 25°
2026-05-05 08:23 23.92149 120.08626 30995 ft 456 kts 25°
2026-05-05 08:23 23.97511 120.12342 30995 ft 457 kts 25°
2026-05-05 08:24 24.02858 120.16051 30993 ft 459 kts 25°
2026-05-05 08:24 24.08242 120.19791 30994 ft 459 kts 25°
2026-05-05 08:25 24.13627 120.23541 30993 ft 459 kts 25°
2026-05-05 08:25 24.19003 120.27282 30938 ft 454 kts 25°
2026-05-05 08:26 24.21630 120.29112 30315 ft 456 kts 25°
2026-05-05 08:26 24.24336 120.30991 29388 ft 464 kts 26°
2026-05-05 08:26 24.27084 120.32901 28425 ft 472 kts 26°
2026-05-05 08:26 24.28927 120.34184 27781 ft 477 kts 27°
2026-05-05 08:27 24.31251 120.35805 27050 ft 483 kts 27°
2026-05-05 08:27 24.34103 120.37798 26425 ft 486 kts 28°
2026-05-05 08:27 24.35713 120.38925 26120 ft 485 kts 28°
2026-05-05 08:27 24.38387 120.40795 25381 ft 487 kts 28°
2026-05-05 08:28 24.41237 120.42788 24645 ft 483 kts 28°
2026-05-05 08:28 24.44056 120.44763 23652 ft 477 kts 30°
2026-05-05 08:28 24.46813 120.46693 22394 ft 476 kts 30°
2026-05-05 08:28 24.49579 120.48632 21297 ft 468 kts 30°
2026-05-05 08:29 24.52301 120.50541 20279 ft 460 kts 31°
2026-05-05 08:29 24.54976 120.52418 19240 ft 451 kts 31°
2026-05-05 08:29 24.57597 120.54256 18169 ft 443 kts 31°
2026-05-05 08:30 24.62691 120.57838 16121 ft 424 kts 32°
2026-05-05 08:30 24.65114 120.59547 15632 ft 402 kts 30°
2026-05-05 08:30 24.67354 120.61177 15294 ft 382 kts 34°
2026-05-05 08:30 24.69351 120.63023 14953 ft 370 kts 39°
2026-05-05 08:31 24.71233 120.64878 14440 ft 357 kts 39°
2026-05-05 08:31 24.73053 120.66677 13776 ft 348 kts 39°
2026-05-05 08:31 24.74842 120.68440 12985 ft 343 kts 39°
2026-05-05 08:31 24.76604 120.70174 12201 ft 337 kts 39°
2026-05-05 08:32 24.78343 120.71885 11417 ft 333 kts 39°
2026-05-05 08:32 24.80059 120.73574 10659 ft 329 kts 39°
2026-05-05 08:32 24.81751 120.75240 9925 ft 325 kts 39°
2026-05-05 08:32 24.83399 120.76862 9154 ft 320 kts 39°
2026-05-05 08:33 24.85041 120.78480 8381 ft 313 kts 39°
2026-05-05 08:33 24.86662 120.80077 7821 ft 313 kts 39°
2026-05-05 08:33 24.88262 120.81654 7392 ft 303 kts 40°
2026-05-05 08:33 24.89814 120.83186 6709 ft 297 kts 40°
2026-05-05 08:34 24.91181 120.84856 6211 ft 293 kts 57°
2026-05-05 08:34 24.91798 120.86946 5839 ft 282 kts 88°
2026-05-05 08:34 24.91773 120.89004 5684 ft 263 kts 94°
2026-05-05 08:34 24.91668 120.90956 5491 ft 248 kts 94°
2026-05-05 08:35 24.91561 120.92818 5257 ft 240 kts 95°
2026-05-05 08:35 24.91469 120.94552 5003 ft 235 kts 95°
2026-05-05 08:35 24.91377 120.96323 4723 ft 228 kts 95°
2026-05-05 08:35 24.91284 120.98064 4534 ft 228 kts 96°
2026-05-05 08:36 24.91190 120.99810 4349 ft 228 kts 95°
2026-05-05 08:36 24.91100 121.01551 4153 ft 226 kts 95°
2026-05-05 08:36 24.91268 121.03264 4009 ft 229 kts 70°
2026-05-05 08:36 24.92117 121.04727 3996 ft 227 kts 49°
2026-05-05 08:37 24.93170 121.05997 3896 ft 227 kts 46°
2026-05-05 08:37 24.94208 121.07288 3640 ft 225 kts 49°
2026-05-05 08:37 24.95222 121.08599 3334 ft 225 kts 48°
2026-05-05 08:37 24.96250 121.09900 3010 ft 225 kts 47°
2026-05-05 08:38 24.97273 121.11191 2737 ft 221 kts 48°
2026-05-05 08:38 24.98247 121.12428 2438 ft 216 kts 48°
2026-05-05 08:38 24.99208 121.13646 2124 ft 203 kts 48°
2026-05-05 08:38 25.00078 121.14749 1874 ft 187 kts 49°
2026-05-05 08:39 25.00897 121.15788 1650 ft 171 kts 49°
2026-05-05 08:39 25.01647 121.16739 1416 ft 158 kts 49°
2026-05-05 08:39 25.02343 121.17620 1200 ft 147 kts 49°
2026-05-05 08:39 25.02992 121.18445 1015 ft 137 kts 49°
2026-05-05 08:40 25.03603 121.19218 832 ft 131 kts 50°
2026-05-05 08:40 25.04205 121.19971 686 ft 131 kts 50°
2026-05-05 08:40 25.04808 121.20726 533 ft 131 kts 51°
2026-05-05 08:40 25.05405 121.21482 365 ft 130 kts 51°
2026-05-05 08:41 25.05972 121.22215 178 ft 129 kts 51°
2026-05-05 08:41 25.06544 121.22952 104 ft 123 kts 51°
2026-05-05 08:41 25.06970 121.23482 104 ft 53 kts 49°
2026-05-05 08:41 25.07200 121.23699 102 ft 37 kts 27°
2026-05-05 08:42 25.07346 121.23756 104 ft 19 kts 19°
2026-05-05 08:42 25.07469 121.23820 105 ft 20 kts 45°
2026-05-05 08:42 25.07581 121.23935 106 ft 23 kts 48°
2026-05-05 08:42 25.07611 121.23972 104 ft 1 kts 48°
2026-05-05 08:43 25.07634 121.24000 106 ft 9 kts 48°
2026-05-05 08:43 25.07677 121.24053 104 ft 0 kts 50°
2026-05-05 08:44 25.07679 121.24055 104 ft 2 kts 50°
2026-05-05 08:44 25.07690 121.24070 104 ft 3 kts 50°
2026-05-05 08:44 25.07710 121.24097 106 ft 6 kts 50°
2026-05-05 08:44 25.07747 121.24145 106 ft 10 kts 50°
2026-05-05 08:45 25.07794 121.24206 105 ft 10 kts 49°
2026-05-05 08:45 25.07845 121.24261 106 ft 11 kts 31°
2026-05-05 08:45 25.07907 121.24239 107 ft 11 kts 312°
2026-05-05 08:45 25.07958 121.24200 104 ft 9 kts 318°
2026-05-05 08:46 25.07978 121.24129 107 ft 11 kts 253°
2026-05-05 08:46 25.07958 121.24093 104 ft 12 kts 232°
2026-05-05 08:46 25.07934 121.24063 106 ft 13 kts 230°
2026-05-05 08:46 25.07868 121.23977 107 ft 16 kts 229°
2026-05-05 08:47 25.07822 121.23919 105 ft 9 kts 229°
2026-05-05 08:47 25.07774 121.23857 106 ft 12 kts 230°
2026-05-05 08:47 25.07717 121.23784 106 ft 4 kts 229°
2026-05-05 08:47 25.07708 121.23757 105 ft 5 kts 253°
2026-05-05 08:48 25.07715 121.23742 106 ft 4 kts 303°
2026-05-05 08:48 25.07743 121.23708 104 ft 8 kts 317°
2026-05-05 08:48 25.07762 121.23690 106 ft 1 kts 319°
2026-05-05 08:48 25.07774 121.23679 104 ft 4 kts 319°
2026-05-05 08:49 25.07785 121.23669 105 ft 0 kts 319°